Location: Unspecified
(45.6669°N, 0.0000°E)
Time: 22:48:48
(UTC+00:00)

ISS - Pass Details

Date: 25 May 2019
Orbit: 408 x 418 km, 51.6° (Epoch: 16 June)

Event Time Altitude Azimuth Distance (km) Brightness Sun altitude
Rises 21:20:53 0° 288° (WNW) 2,355 1.0 -14.5°
Reaches altitude 10° 21:23:10 10° 300° (WNW) 1,495 0.1 -14.7°
Maximum altitude 21:26:08 28° 2° (N) 817 -1.7 -15.0°
Drops below altitude 10° 21:29:06 10° 64° (ENE) 1,500 -1.1 -15.3°
Enters shadow 21:30:22 - 72° (ENE) 1,972 -0.5 -15.5°
